User: anonymous   Login
Location: Dover
(39.1580°N, 75.5250°W)
Time: 10:52:24
(UTC-05:00)
Language:

SeaSat 1 - Orbit

View from above orbital plane
View from above orbital plane
View from above satellite
View from above satellite

Ground track
Ground track

The orbit data is extracted from the following two-line orbital elements,

1 10967U 78064A   16039.56183219  .00000164  00000-0  88651-4 0  9995
2 10967 107.9986 346.1542 0002222 301.9906  58.1022 14.43507175975226
Epoch (UTC): 08 February 2016 13:29:02
Eccentricity: 0.0002222
inclination: 107.9986°
perigee height: 745 km
apogee height: 748 km
right ascension of ascending node: 346.1542°
argument of perigee: 301.9906°
revolutions per day: 14.43507175
mean anomaly at epoch: 58.1022°
orbit number at epoch: 97522

The dashed part of the orbit path shows where the satellite is in the earth's shadow,  

DLR